Dewpoint
27 29 28 27 27 27 26 26 29 30 30 30 29 29 29 31 28 28 29 30 31 33 33 33 33 35 35 35 35 37 38 40 40 44 49 58 60 62 63 63 62 61 58
27 28 27 26 26 26 26 28 29 29 29 29 29 30 28 28 29 31 30 31 31 32 32 32 32 33 34 34 34 35 36 37 39 40 44 54 58 60 62 62 62 62 60
27 27 25 25 26 25 26 28 28 28 29 28 27 28 29 28 29 31 31 31 31 32 32 32 32 32 32 33 33 34 35 36 37 38 41 46 56 57 56 58 62 62 62
27 26 25 26 26 26 27 28 28 28 27 27 27 26 27 29 30 31 30 30 31 31 33 32 32 32 32 32 33 33 34 34 36 38 40 43 54 56 55 54 54 57 61
27 26 25 26 26 26 27 27 27 25 26 26 26 26 26 28 30 30 30 29 30 30 32 32 33 32 32 33 33 33 33 34 35 37 39 43 52 53 53 54 53 54 55
27 25 26 26 25 26 27 27 26 24 25 25 24 25 25 27 29 29 29 29 30 30 29 30 30 29 31 32 33 34 34 34 34 35 38 40 44 53 53 53 53 52 50
26 25 25 26 25 26 27 27 25 25 25 25 24 24 24 26 28 28 28 28 28 29 29 30 28 28 30 30 31 33 34 35 34 33 34 36 38 41 43 53 53 53 52
25 25 25 25 25 25 26 26 26 25 25 24 24 24 23 25 27 27 27 27 27 28 28 30 29 29 29 29 29 30 31 33 34 34 35 36 38 40 41 45 50 54 55
24 24 24 25 23 24 24 25 26 25 24 23 23 23 24 23 26 25 25 26 26 26 26 27 28 28 27 27 27 27 28 29 33 34 35 36 36 37 37 44 49 53 51
24 23 24 24 23 22 23 24 25 25 23 23 22 23 24 24 23 25 24 24 23 24 24 24 24 25 26 25 26 26 24 27 30 32 32 33 34 35 36 38 40 48 50
24 22 22 22 23 24 24 25 25 22 22 21 21 22 23 23 23 24 23 24 24 23 22 23 24 23 23 24 24 26 25 27 29 29 30 30 31 33 34 35 36 37 42
22 21 22 22 22 23 23 24 24 21 22 20 20 19 22 22 21 22 22 23 23 23 22 22 22 22 22 22 23 23 23 25 26 26 26 27 29 31 32 33 35 35 38
22 21 22 23 22 22 22 22 23 21 19 21 20 18 20 22 20 20 21 21 22 22 22 21 20 21 20 21 21 21 22 23 24 24 24 25 28 31 32 32 33 35 37
22 22 22 24 25 23 22 23 22 21 19 21 20 21 20 20 18 19 21 21 21 21 19 20 19 19 19 19 20 20 21 21 22 23 24 25 27 29 30 32 31 32 33
22 22 23 24 25 25 23 23 22 23 22 21 21 21 20 19 17 18 19 19 19 20 17 17 16 16 16 15 17 18 19 19 20 22 22 23 24 26 28 31 31 31 31
21 22 23 24 23 24 24 21 22 22 21 21 20 19 20 18 16 17 17 17 17 17 14 14 14 15 15 13 14 15 16 17 18 19 20 21 22 24 26 27 29 30 29
22 23 24 23 22 21 23 20 17 18 19 20 19 18 18 15 15 16 16 15 15 15 14 14 14 14 14 13 13 13 14 15 16 17 18 19 20 22 24 25 26 27 28
24 24 23 21 20 20 18 18 17 17 14 15 17 16 17 14 14 14 14 13 13 14 14 13 13 13 13 13 12 12 13 13 14 14 16 17 17 20 22 23 24 25 26
25 24 22 21 21 20 18 17 17 17 16 15 15 15 16 13 12 12 13 13 12 12 13 13 12 12 12 13 12 12 12 12 12 13 14 15 16 18 20 21 22 23 24
26 24 20 20 20 19 18 17 17 15 15 15 13 13 15 12 10 11 12 12 12 12 12 12 12 11 11 12 12 11 11 11 11 12 12 13 14 17 18 20 21 22 23
26 23 21 20 19 19 18 17 17 15 14 15 14 13 12 12 10 11 10 10 11 11 12 12 11 10 10 10 10 10 10 10 10 11 11 12 14 15 16 18 19 20 22
26 23 21 20 20 19 18 18 17 15 15 14 13 13 10 10 10 10 10 8 9 10 11 11 10 10 10 10 10 10 10 10 10 10 11 12 13 14 15 16 17 18 20
26 23 21 21 20 19 18 17 17 15 14 14 13 11 11 9 8 8 8 7 8 8 9 9 10 8 9 9 10 10 10 9 10 11 11 12 12 13 14 14 15 16 17
24 22 21 21 19 18 18 16 16 16 14 13 12 11 10 10 8 7 7 7 6 6 6 7 8 7 7 8 9 10 10 10 10 11 11 12 12 12 12 13 14 14 15
24 22 21 20 19 17 16 16 15 15 13 12 12 11 11 10 9 7 6 6 5 4 5 6 6 6 6 7 8 9 8 7 8 8 10 11 11 11 11 12 12 12 13
24 22 21 20 18 16 16 15 14 13 13 12 12 10 9 10 9 7 7 6 4 3 3 4 5 5 5 6 7 8 6 7 7 7 8 9 9 9 9 10 10 10 10
Wind_Speed
7 6 10 13 14 15 15 15 13 14 16 16 16 17 17 14 18 18 17 17 18 17 16 17 16 16 15 13 12 9 9 8 9 9 10 11 15 20 17 19 20 19 22
5 6 11 13 15 15 16 15 15 16 16 16 16 13 16 17 18 18 19 17 17 18 18 18 18 16 17 16 14 12 9 8 5 13 10 8 3 8 16 20 17 20 19
5 7 11 14 14 16 15 14 15 15 16 16 16 17 16 16 18 19 17 16 16 15 16 17 17 18 18 17 16 13 10 8 8 10 9 6 2 4 5 5 10 18 20
5 8 11 13 14 14 15 15 16 16 16 16 16 16 17 15 18 20 18 17 17 16 15 16 16 17 19 19 16 14 12 11 9 11 10 9 10 4 5 5 6 4 16
5 8 10 12 13 14 14 14 15 16 15 16 16 17 17 16 21 23 18 17 18 18 16 16 16 20 24 23 18 17 13 9 8 7 10 6 10 8 12 7 5 4 8
7 8 9 12 14 14 13 14 15 16 16 16 17 16 17 16 28 28 22 17 17 17 19 18 17 19 24 25 23 22 16 10 9 6 6 9 16 8 9 11 8 7 9
8 9 10 11 13 13 13 13 15 16 16 17 17 17 18 17 29 29 24 16 16 17 18 17 19 18 24 23 22 20 18 14 10 9 10 8 11 12 10 10 13 9 7
8 8 10 10 11 12 13 14 15 14 15 16 17 17 18 17 28 29 23 17 16 16 18 18 21 21 24 25 21 20 19 15 16 13 10 10 11 11 9 7 4 11 5
8 8 9 9 11 11 14 15 13 14 15 16 16 18 18 20 28 28 22 18 17 17 16 18 23 21 27 28 21 22 20 20 18 17 13 11 14 13 15 7 5 11 8
7 8 8 9 10 12 11 13 11 11 13 15 15 17 19 19 26 29 26 17 19 17 17 18 24 25 28 28 21 21 23 23 21 20 18 18 15 15 17 12 8 6 7
7 8 8 9 10 11 12 11 11 12 13 15 14 15 17 21 21 27 28 18 18 16 17 19 18 27 27 29 26 23 22 19 20 17 16 16 17 17 15 14 10 7 4
8 8 9 9 9 10 12 12 12 12 13 15 15 15 14 17 23 25 26 27 23 15 17 17 19 26 26 27 25 28 26 20 19 19 20 21 19 20 18 15 13 11 6
7 7 6 7 8 9 11 13 12 12 13 13 14 15 16 15 17 24 23 26 23 17 16 20 24 24 25 22 28 29 24 21 21 21 21 20 19 16 17 16 13 12 6
6 5 4 5 6 8 9 10 12 12 12 12 14 14 14 15 18 17 15 17 20 18 17 17 18 19 19 19 21 23 21 21 20 19 19 17 19 20 19 17 15 18 8
7 4 4 4 5 5 6 8 11 9 12 11 12 12 14 15 18 19 17 17 17 16 14 13 19 22 22 23 21 21 21 21 23 21 21 21 21 20 20 18 18 15 15
7 4 3 4 4 4 3 7 9 11 13 15 16 15 10 17 20 21 18 20 22 18 17 19 19 18 21 21 21 21 21 21 21 20 20 19 19 19 21 20 16 15 15
7 5 3 4 5 5 5 6 7 8 10 14 16 17 17 19 20 21 18 16 21 17 17 18 18 19 18 19 19 19 20 20 18 18 19 19 20 19 20 19 19 18 16
7 5 5 5 6 7 7 6 6 8 11 13 11 15 16 17 19 21 19 14 16 18 16 17 16 17 17 18 18 19 19 19 19 19 19 18 18 18 19 19 17 18 16
7 6 7 6 7 8 8 7 7 7 8 9 9 10 13 15 17 18 19 13 13 14 14 14 14 15 15 16 16 16 17 18 18 18 18 18 19 17 17 17 17 18 17
7 7 8 8 7 8 7 7 6 6 7 9 11 12 11 10 14 15 13 12 12 12 12 13 13 14 14 15 15 15 16 17 18 19 19 18 18 17 17 18 17 17 16
8 8 9 8 7 7 7 5 5 5 6 6 8 9 12 9 10 11 11 11 11 12 12 12 12 13 14 14 15 15 16 16 16 17 17 17 17 19 18 16 16 17 17
10 11 9 9 8 8 7 6 5 5 4 4 5 7 10 9 9 9 9 11 10 10 10 11 11 12 12 13 14 13 14 16 17 17 17 16 17 17 16 16 17 16 17
11 12 10 9 9 9 8 7 6 5 4 3 3 4 6 8 9 9 10 11 9 10 9 9 10 11 11 10 12 12 13 14 15 14 16 16 16 16 15 15 16 17 17
13 14 12 11 10 9 9 8 7 6 4 4 3 1 2 4 6 8 9 10 11 12 10 10 9 10 11 11 10 11 12 13 12 13 14 13 15 16 15 15 16 17 16
14 15 14 13 13 12 10 9 9 7 6 5 5 3 1 1 4 5 7 9 10 11 11 11 10 10 11 12 13 14 15 16 15 15 12 12 13 14 15 14 17 16 17
14 15 15 13 13 12 13 12 12 10 9 7 7 5 3 2 2 3 5 7 9 10 10 10 11 12 12 10 12 14 16 17 16 17 13 11 12 13 14 14 16 15 16
Wind_Direction
11 27 11 7 2 354 348 341 351 350 353 357 2 0 356 8 355 355 348 349 345 350 357 352 356 357 357 359 346 337 323 315 292 299 293 264 202 186 190 192 190 194 201
19 36 14 9 1 355 350 1 1 357 356 358 359 360 5 1 348 349 348 348 352 355 354 354 359 353 360 353 345 335 321 309 294 292 283 276 202 193 186 194 185 200 195
42 38 18 10 3 359 357 355 359 357 355 358 3 4 1 353 350 352 352 351 351 352 351 356 355 355 354 348 342 333 320 303 291 275 287 305 225 169 146 141 184 193 201
73 37 19 5 359 360 359 359 0 358 360 359 2 4 355 351 356 359 358 356 351 353 351 354 350 0 355 347 340 338 328 312 301 283 277 272 240 175 170 177 170 61 211
71 35 18 7 5 2 4 3 2 3 1 0 3 7 357 356 3 6 1 353 356 356 357 358 354 359 358 352 345 342 329 312 289 286 280 288 243 162 193 187 179 193 290
67 33 14 13 8 5 5 4 2 3 2 2 7 9 4 357 6 11 9 360 357 358 0 2 357 0 357 355 349 345 341 354 340 340 330 323 307 195 170 180 172 180 226
62 38 22 17 15 11 6 6 4 0 1 2 5 9 10 1 8 11 9 2 3 3 4 360 1 2 3 356 353 352 357 2 359 334 317 312 319 2 334 199 191 190 210
62 42 25 21 22 14 8 8 7 1 3 2 3 8 11 6 9 10 11 4 5 8 8 1 3 2 3 5 358 357 358 359 357 351 331 317 299 316 313 284 257 207 178
66 42 21 18 20 12 14 8 7 6 5 4 4 5 6 9 10 13 14 8 4 8 11 7 7 7 7 9 7 0 1 1 354 356 356 353 357 354 357 291 268 201 212
82 48 36 25 17 8 9 11 8 3 6 4 4 3 0 7 9 13 18 10 8 5 8 10 9 13 13 15 13 8 5 355 353 357 3 11 7 7 11 19 0 264 187
86 66 51 34 25 18 19 15 14 17 9 1 3 1 5 6 6 13 16 16 11 7 9 6 6 14 17 17 19 16 6 352 358 5 10 12 13 13 2 5 2 346 346
93 77 62 48 35 26 26 17 19 19 14 8 10 13 8 4 4 8 12 14 16 15 11 9 8 15 18 17 18 15 12 10 10 13 13 10 11 4 356 354 348 355 328
107 94 68 50 38 30 29 22 26 20 21 12 13 14 2 2 6 2 4 8 11 16 11 12 13 14 15 14 13 12 14 15 15 15 10 2 354 344 0 1 4 13 67
120 112 68 45 30 28 29 28 30 22 19 14 13 9 3 8 5 2 3 6 4 10 7 6 9 13 20 13 11 13 13 11 11 11 6 359 1 5 11 3 7 8 21
131 119 75 48 24 19 41 40 28 22 30 21 15 16 8 16 7 6 14 15 13 7 9 19 19 17 16 13 9 11 10 10 9 5 6 5 8 7 9 7 6 10 31
136 118 64 40 37 42 71 42 35 41 35 34 31 27 18 23 14 15 21 23 22 16 23 23 21 19 15 10 8 5 7 6 4 2 4 7 5 3 7 11 8 10 18
135 120 86 79 55 54 79 61 33 16 25 32 30 28 26 24 22 21 22 26 28 29 34 24 19 13 11 10 5 4 2 0 357 3 4 3 360 2 8 8 6 9 13
129 115 120 104 101 93 91 76 65 42 25 17 7 23 24 28 27 27 24 25 26 27 28 22 15 10 6 7 5 1 358 359 1 360 1 1 1 359 2 4 3 3 3
138 123 131 121 108 115 106 90 72 62 42 29 6 6 11 22 31 30 29 32 26 23 18 20 13 9 4 4 2 360 359 357 355 356 358 357 356 356 1 1 358 0 6
141 134 142 135 124 121 114 105 86 62 48 38 30 14 357 18 24 21 22 18 17 16 12 12 10 9 5 3 0 359 360 1 358 357 355 354 352 355 356 355 356 357 359
161 156 151 143 141 143 135 124 119 95 61 49 34 22 25 28 23 22 21 16 10 7 4 5 6 5 5 5 4 1 360 357 356 354 352 351 353 355 352 353 355 354 354
172 168 164 164 154 152 147 144 140 121 92 71 41 28 30 36 27 23 21 16 6 7 4 2 5 7 7 5 3 359 359 356 353 352 350 349 351 352 352 353 353 355 356
179 172 173 171 164 157 159 156 156 151 129 113 84 37 26 28 25 21 16 9 8 8 7 7 5 3 4 2 3 3 359 354 346 344 345 347 348 350 350 354 354 353 356
181 179 181 182 179 176 175 172 168 173 165 149 149 82 25 12 13 10 5 5 7 7 8 11 9 6 0 357 0 1 358 349 349 347 343 346 348 348 352 355 357 355 355
184 185 187 189 189 188 185 187 185 187 189 183 182 195 242 337 3 7 1 1 6 10 7 4 5 1 1 360 358 354 354 355 354 352 352 355 353 355 355 355 356 356 358
188 190 193 191 195 194 195 195 197 196 203 203 198 200 214 248 320 343 352 1 4 3 3 3 358 360 360 357 354 354 358 360 2 1 3 5 4 3 1 359 359 0 358